Regional Weather Roundup
Issued by NWS

Home | Current Version | Previous Version | Text Only | Print | Product List | Glossary Off
Versions: 1 2 3 4 5 6 7 8 9 10 11 12 13 14 15 16 17 18 19 20 21 22 23 24 25 26 27 28 29 30 31 32 33 34 35 36 37 38 39 40 41 42 43 44 45 46 47 48 49 50

000
ASUS45 KBOU 281207
RWRCO

WEATHER ROUNDUP FOR COLORADO
NATIONAL WEATHER SERVICE DENVER/BOULDER CO
600 AM MDT SAT MAY 28 2016

NOTE: "FAIR" INDICATES FEW OR NO CLOUDS BELOW 12000 FEET WITH NO
SIGNIFICANT WEATHER AND/OR OBSTRUCTIONS TO VISIBILITY.

COZ001>005-013-030-031-281300-
...NORTHWEST COLORADO...

CITY           SKY/WX    TMP DP  RH WIND       PRES   REMARKS
CRAIG          FAIR      34  32  92 SW3       30.08R
HAYDEN         CLOUDY    39  34  81 SE9       30.09R
MEEKER         FAIR      36  33  89 CALM      30.09R
MOUNT WERNER   NOT AVBL
STEAMBOAT SPGS FAIR      35  34  96 E5        30.10S WCI  31
WALDEN         FAIR      36  32  87 CALM      30.12R
$$

COZ006>008-011-281300-
...WEST CENTRAL VALLEYS...

CITY           SKY/WX    TMP DP  RH WIND       PRES   REMARKS
GRAND JUNCTION FAIR      44  40  85 E5        30.03R
MONTROSE       FAIR      40  32  73 S5        30.10R
EAGLE          MOCLDY    34  34 100 E3        30.16R
RIFLE          FAIR      38  32  79 CALM      30.09R
DELTA          FAIR      44  37  76 NE6       30.07R
NUCLA          FAIR      41  32  70 SE8       30.11R
$$

COZ017>023-064>068-281300-
...SOUTHWEST COLORADO...

CITY           SKY/WX    TMP DP  RH WIND       PRES   REMARKS
DURANGO        FAIR      34  29  82 N3        30.11R
CORTEZ         FAIR      35  29  78 CALM      30.08R
PAGOSA SPRINGS FAIR      32  32  99 CALM      30.16R
TELLURIDE      FAIR      35  30  82 SE5       30.20R WCI  31
WOLF CREEK PAS FAIR      30  21  69 SW17      30.30R WCI  18
$$

COZ009-010-012-014-032>034-037-058>063-281300-
...CENTRAL COLORADO...

CITY           SKY/WX    TMP DP  RH WIND       PRES   REMARKS
ASPEN          FAIR      31  28  89 CALM      30.13R
BUENA VISTA    FAIR      31  27  85 CALM      30.14R
COPPER MTN     NOT AVBL
BERTHOUD PASS  CLOUDY    23  14  68 N21G30    30.22R WCI   8
COTTONWOOD PAS FAIR      37  28  70 W7        30.18R
GUNNISON       FAIR      32  28  86 CALM      30.19R
KREMMLING      FAIR      34  32  93 CALM      30.16R
LEADVILLE      FAIR      24  21  88 NE7       30.18R WCI  16
MONARCH PASS   FOG       27  27 100 W22       30.34R VSB 1/4 WCI  12
SALIDA         FAIR      36  32  84 CALM      30.20R
SUNLIGHT       FAIR      32  30  93 CALM      30.26R
WILKERSON PASS FAIR      32  23  69 NW12G18   30.23R WCI  23
$$

COZ069>075-281300-
...SAN LUIS VALLEY/SANGRE DE CRISTO MOUNTAINS...

CITY           SKY/WX    TMP DP  RH WIND       PRES   REMARKS
ALAMOSA        FAIR      31  30  96 S5        30.14R WCI  26
LA VETA PASS   FAIR      32  30  93 SW7       30.19R WCI  26
SAGUACHE       FAIR      32  30  93 N10       30.16R WCI  24
$$

COZ035-036-038>040-281300-
...NORTHERN COLORADO FRONT RANGE...

CITY           SKY/WX    TMP DP  RH WIND       PRES   REMARKS
DENVER INTL AP FAIR      45  37  73 SW8       29.99R
DMNS CITY PARK   N/A     45  37  75 SE8       30.00R
AURORA         PTCLDY    42  38  86 S8        30.01R
FRONT RANGE AP NOT AVBL
ERIE MUNI ARPT FAIR      37  36  96 CALM      29.99R
BOULDER MUN AP FAIR      41  37  87 CALM      29.98R
CENTENNIAL     FAIR      41  34  76 S5        30.01R
BROOMFIELD     FAIR      48  36  61 SW3       30.00R
FORT COLLINS   FAIR      45  41  87 CALM      29.99R
LONGMONT       MOCLDY    41  38  89 CALM      30.00R FOG
$$

COZ041-046-047-076>085-087-088-281300-
...PIKES PEAK/PALMER DIVIDE AND SOUTHERN FOOTHILLS...

CITY           SKY/WX    TMP DP  RH WIND       PRES   REMARKS
COLO. SPRINGS  FAIR      42  33  70 N7        30.03R
A. F. ACADEMY  FAIR      37  32  81 N7        30.04R
SCHRIEVER AFB  NOT AVBL
ELLICOTT       FAIR     N/A N/A N/A CALM      30.02R
FALCON         FAIR      44  31  61 N6        30.05R
FORT CARSON    FAIR      41  32  71 NW5       30.01R
LIMON          FAIR      38  36  92 NW3       29.99R
MONUMENT HILL  FAIR      36  32  87 W6        30.07R
TRINIDAD       FAIR      41  37  86 W10       30.04R
$$

COZ042>045-048>051-090-091-281300-
...NORTHEAST COLORADO...

CITY           SKY/WX    TMP DP  RH WIND       PRES   REMARKS
GREELEY ARPT   FAIR      39  37  93 CALM      29.98R
AKRON          FAIR      43  40  89 SW9       29.96R
BURLINGTON     FAIR      43  39  86 W9        29.95R
WRAY           NOT AVBL
STERLING       FAIR      41  39  93 SW6       29.94R
HOLYOKE        FAIR      46  43  87 NW5       29.92R
FORT MORGAN    FAIR      42  41  95 W7        29.96S
$$

COZ086-089-092>099-281300-
...SOUTHEAST COLORADO...

CITY           SKY/WX    TMP DP  RH WIND       PRES   REMARKS
PUEBLO         FAIR      43  39  86 W3        29.99R
LA JUNTA       FAIR      48  43  82 W13       29.98R
LAMAR          FAIR      40  39  97 SW9       29.96R
SPRINGFIELD      N/A     42  39  89 W8        29.98R
$$



USA.gov is the U.S. government's official web portal to all federal, state and local government web resources and services.